Regional Weather Roundup
Issued by NWS

Home | Current Version | Previous Version | Graphics & Text | Print | Product List | Glossary On
Versions: 1 2 3 4 5 6 7 8 9 10 11 12 13 14 15 16 17 18 19 20 21 22 23 24 25 26 27
000
ASUS45 KPSR 230010
RWRAZ

ARIZONA HOURLY REGIONAL WEATHER ROUNDUP
NATIONAL WEATHER SERVICE PHOENIX AZ
500 PM MST FRI JUL 22 2016

NOTE: FAIR INDICATES FEW OR NO CLOUDS BELOW 12,000 FEET WITH NO
SIGNIFICANT WEATHER AND/OR OBSTRUCTIONS TO VISIBILITY.

AZZ001>003-036-230100-
NORTHWEST ARIZONA

CITY           SKY/WX    TMP DP  RH WIND       PRES   REMARKS
BULLHEAD CITY  SUNNY    115  34   6 S5        29.73F HX 107
KINGMAN        MOSUNNY  102  38  11 SW16G22   30.00F
6HR MIN TEMP: 100; 6HR MAX TEMP: 106;

$$

AZZ004>008-015-016-018-230100-
NORTH CENTRAL ARIZONA

CITY           SKY/WX    TMP DP  RH WIND       PRES   REMARKS
GRAND CANYON   CLOUDY    76  51  41 SE8G18    30.30R
6HR MIN TEMP:  76; 6HR MAX TEMP:  93; 6HR PCP: TRACE;

WILLIAMS       CLOUDY    73  48  40 S10       30.39F
PRESCOTT       CLOUDY    86  52  30 NE14G26   30.19R THUNDER
6HR MIN TEMP:  86; 6HR MAX TEMP:  96;

FLAGSTAFF      CLOUDY    76  42  29 SW5       30.35F
6HR MIN TEMP:  69; 6HR MAX TEMP:  85;

PAYSON         CLOUDY    75  55  50 N16       30.24F
PAGE           PTSUNNY   99  43  14 NE15      30.04F
6HR MIN TEMP:  93; 6HR MAX TEMP: 103;

$$

AZZ009>014-017-230100-
NORTHEAST ARIZONA

CITY           SKY/WX    TMP DP  RH WIND       PRES   REMARKS
WINSLOW        CLOUDY    85  49  28 SW17      30.16F
6HR MIN TEMP:  78; 6HR MAX TEMP:  99; 6HR PCP: TRACE;

SAINT JOHNS    PTSUNNY   89  46  22 W23G32    30.21R
6HR MIN TEMP:  87; 6HR MAX TEMP:  95;

WINDOW ROCK    LGT RAIN  75  57  53 NW15      30.31R
6HR MIN TEMP:  73; 6HR MAX TEMP:  90; 6HR PCP:  0.04;

SHOW LOW       LGT RAIN  68  55  64 SW15      30.36R
$$

AZZ023-230100-
GREATER PHOENIX AREA

CITY           SKY/WX    TMP DP  RH WIND       PRES   REMARKS
PHOENIX        PTSUNNY  111  52  14 W7        29.77F HX 108
6HR MIN TEMP: 102; 6HR MAX TEMP: 112;

BUCKEYE        SUNNY    111  54  15 SE9       29.78F HX 109
GLENDALE       MOSUNNY  115  52  12 S9        29.79F HX 112
LUKE AFB       MOSUNNY  113  52  13 S15       29.76F HX 110
6HR MIN TEMP: 103; 6HR MAX TEMP: 113;

DEER VALLEY    MOSUNNY  109  52  15 S7        29.80F HX 107
6HR MIN TEMP: 100; 6HR MAX TEMP: 111;

SCOTTSDALE     PTSUNNY  110  50  13 S7        29.82F HX 107
6HR MIN TEMP: 102; 6HR MAX TEMP: 111;

MESA-FALCON    PTSUNNY  N/A N/A N/A SW12      29.78F
MESA-GATEWAY   MOSUNNY  109  54  16 CALM      29.82F HX 108
CHANDLER       SUNNY    111  52  14 S6        29.80F HX 109
$$

AZZ027-028-230100-
SOUTHWEST MARICOPA COUNTY AND PINAL COUNTY

CITY           SKY/WX    TMP DP  RH WIND       PRES   REMARKS
CASA GRANDE    SUNNY    109  55  17 CALM      29.85F HX 108
6HR MIN TEMP: 102; 6HR MAX TEMP: 109;

GILA BEND      MOSUNNY  114  47  11 W12G20    29.75F HX 109
6HR MIN TEMP: 105; 6HR MAX TEMP: 114;

$$

AZZ503-504-507>509-230100-
SOUTHEAST ARIZONA

CITY           SKY/WX    TMP DP  RH WIND       PRES   REMARKS
TUCSON         SUNNY    104  47  14 VRB3      29.94F HX 100
6HR MIN TEMP:  96; 6HR MAX TEMP: 106;

RYAN FIELD     SUNNY    106  50  15 SW7       29.93F HX 103
NOGALES        MOSUNNY   97  50  20 W3        30.05F
6HR MIN TEMP:  90; 6HR MAX TEMP:  99;

SIERRA VISTA   MOSUNNY   96  43  16 E6        30.13F
6HR MIN TEMP:  88; 6HR MAX TEMP:  96;

DOUGLAS        CLOUDY    87  53  31 S9        30.07F
6HR MIN TEMP:  85; 6HR MAX TEMP:  98;

SAFFORD        MOSUNNY  103  45  14 VRB7      29.94F
6HR MIN TEMP:  93; 6HR MAX TEMP: 105;

$$

AZZ020-021-025-026-031-230100-
SOUTHWEST ARIZONA

CITY           SKY/WX    TMP DP  RH WIND       PRES   REMARKS
YUMA           PTSUNNY  112  59  18 S16       29.74F HX 113
6HR MIN TEMP: 104; 6HR MAX TEMP: 114;

$$

CAZ031-033-041-043-047-048-061-230100-
SOUTHERN CALIFORNIA

CITY           SKY/WX    TMP DP  RH WIND       PRES   REMARKS
DOWNTOWN L.A.  SUNNY     87  54  32 CALM      29.83F
6HR MIN TEMP:  87; 6HR MAX TEMP:  95;

L.A. AIRPORT   MOSUNNY   82  54  37 W13       29.84F
6HR MIN TEMP:  79; 6HR MAX TEMP:  84;

SAN DIEGO      MOSUNNY   81  60  48 NW10      29.85F
6HR MIN TEMP:  79; 6HR MAX TEMP:  85;

BURBANK        SUNNY     99  49  18 S8        29.83F
6HR MIN TEMP:  93; 6HR MAX TEMP: 102;

ONTARIO        MOSUNNY  104  50  16 SW16G22   29.84F HX 101
6HR MIN TEMP:  93; 6HR MAX TEMP: 108;

RIVERSIDE      SUNNY    104  50  16 W13G21    29.83F HX 101
6HR MIN TEMP:  96; 6HR MAX TEMP: 109;

PALM SPRINGS   SUNNY    114  40   8 E9        29.76F HX 107
6HR MIN TEMP: 107; 6HR MAX TEMP: 115;

EL CENTRO NAS  MOSUNNY  114  50  12 SE10      29.71F HX 111
6HR MIN TEMP: 107; 6HR MAX TEMP: 117;

IMPERIAL       MOSUNNY  115  59  16 SE15      29.70F HX 116
6HR MIN TEMP: 108; 6HR MAX TEMP: 117;

BLYTHE         MOSUNNY  114  49  11 S15       29.73F HX 110
6HR MIN TEMP: 107; 6HR MAX TEMP: 116;

NEEDLES        PTSUNNY  117  36   6 NW8       29.76F HX 109
6HR MIN TEMP: 111; 6HR MAX TEMP: 118;

$$

NVZ020-UTZ003-230100-
SOUTHERN NEVADA-UTAH

CITY           SKY/WX    TMP DP  RH WIND       PRES   REMARKS
LAS VEGAS      MOSUNNY  111  29   6 SW13G20   29.81F HX 103
6HR MIN TEMP: 106; 6HR MAX TEMP: 112;

SALT LAKE CITY MOSUNNY  100  31   9 N15       30.00F
6HR MIN TEMP:  89; 6HR MAX TEMP: 102; 6HR PCP: TRACE;

$$

NMZ009-TXZ055-230100-
NEW MEXICO-WEST TEXAS

CITY           SKY/WX    TMP DP  RH WIND       PRES   REMARKS
ALBUQUERQUE    MOSUNNY   97  36  12 CALM      30.12F
6HR MIN TEMP:  88; 6HR MAX TEMP:  99;

EL PASO        MOSUNNY  101  46  15 S7        30.01F
6HR MIN TEMP:  93; 6HR MAX TEMP: 105;

$$


........................KEY........................
SKY/WX - SKY CONDITION/WEATHER
TMP    - TEMPERATURE IN FAHRENHEIT
DP     - DEW POINT IN FAHRENHEIT
RH     - RELATIVE HUMIDITY IN PERCENT
WIND   - DIRECTION AND SPEED IN MILES PER HOUR (MPH)
VRB    - VARIABLE WIND DIRECTION
PRES   - MEAN SEA LEVEL PRESSURE IN INCHES OF MERCURY
         F - FALLING PRESSURE   R - RISING PRESSURE
         S - STEADY PRESSURE
VSB    - VISIBILITY IN MILES
HX     - HEAT INDEX IN FAHRENHEIT
WCI    - WIND CHILL INDEX IN FAHRENHEIT
TC     - TEMPERATURE IN CELSIUS WHICH IS ALSO KNOWN AS
         TEMPERATURE IN CENTIGRADE
AFB    - AIR FORCE BASE
         LUKE AFB IS LUKE AIR FORCE BASE
         DAVIS-MONTHAN IS DAVIS-MONTHAN AIR FORCE BASE
NAS    - NAVAL AIR STATION
         EL CENTRO NAS IS EL CENTRO NAVAL AIR STATION
N/A    - NOT AVAILABLE





USA.gov is the U.S. government's official web portal to all federal, state and local government web resources and services.